[[{"header":{"parameterUnit":"m.s-1","parameterCategory":1,"la1":30.2991,"la2":30.254,"lo1":-89.0895,"lo2":-89.0444,"dy":0.0017,"dx":0.0017,"nx":28,"ny":28,"refTime":"2024-04-19T09:00:00:Z","depth":0,"parameterNumber":2,"parameterNumberName":"U-component_of_WINDS"},"data":[0,0,0,0,0,0,0,0,0,0,0,0,0,0,0,0,0,0,0,0,0,0,0,0,0,0,0,0,0,0,0,0,0,0,0,0,0,0,0,0,0,0,0,0,0,0,0,0,0,0,0,0,0,0,0,0,0,0,0.8108,0.8109,0,0.8175,0.8176,0.8176,0.8182,0.8182,0.8181,0.818,0.8248,0.825,0.8253,0,0,0,0,0,0,0,0,0,0,0,0,0,0.7985,0.7987,0.8108,0.8109,0.811,0.8175,0.8176,0.8177,0.8183,0.8182,0.8181,0.818,0.8247,0.825,0.8253,0,0,0,0,0,0,0,0,0,0,0,0,0,0.8044,0.7988,0.8108,0.8121,0.8123,0.8175,0.8176,0.8177,0.8183,0.8182,0.8181,0.818,0.8246,0.825,0.8253,0.8297,0,0,0.8264,0.8266,0,0,0,0,0,0,0,0,0.804,0.8048,0.8118,0.812,0.8122,0.8169,0.8157,0.8217,0.8183,0.816,0.818,0.8179,0.8222,0.8228,0.8243,0.83,0.8303,0.8265,0.8267,0.8268,0.827,0,0,0,0,0,0,0,0.8036,0.8045,0.8135,0.8119,0.8122,0.8123,0.813,0.8168,0.8196,0.8162,0.8162,0.817,0.8223,0.8239,0.8244,0.8304,0.8265,0.8268,0.827,0.8272,0.8398,0.84,0,0,0,0,0,0,0.803,0.8042,0.8133,0.8137,0.8078,0.8126,0.8134,0.8155,0.8196,0.8201,0.8171,0.817,0.8233,0.824,0.8247,0.83,0.8268,0.8272,0.8274,0.8397,0.8399,0.84,0,0,0,0,0,0,0.8027,0.8038,0.813,0.8089,0.8101,0.8129,0.8153,0.8157,0.8173,0.8203,0.8208,0.8182,0.8233,0.8242,0.8284,0.8302,0.8274,0.8277,0.8396,0.8398,0.8399,0.8407,0,0,0,0,0,0,0.8024,0.8037,0.8054,0.809,0.8103,0.8167,0.8154,0.8159,0.8179,0.8179,0.8215,0.822,0.8233,0.8278,0.8288,0.8307,0.828,0.8394,0.8397,0.8399,0.8405,0.8409,0.8412,0,0,0,0,0,0.8019,0.8054,0.8055,0.8066,0.8126,0.8168,0.8175,0.819,0.8181,0.8198,0.8217,0.8218,0.8299,0.8283,0.8293,0.8314,0.8393,0.8396,0.8399,0.8404,0.8408,0.8411,0,0,0,0,0,0,0.802,0.8059,0.8061,0.8108,0.8135,0.8169,0.8191,0.8194,0.8224,0.8222,0.8239,0.8247,0.8289,0.8305,0.8287,0.8357,0.8345,0.835,0.8345,0.8349,0.8353,0.8348,0.8283,0,0,0,0,0,0.8026,0.8057,0.8089,0.8128,0.8141,0.8164,0.8183,0.8191,0.8219,0.8231,0.8253,0.8279,0.831,0.8331,0.8361,0.8407,0.8414,0.8426,0.8429,0.8432,0.8436,0.846,0.8466,0.8409,0.8409,0.8409,0,0,0.8038,0.8063,0.8082,0.8129,0.815,0.8181,0.8173,0.8207,0.823,0.8236,0.8277,0.8294,0.8325,0.8369,0.8389,0.8384,0.8453,0.8435,0.8437,0.844,0.8464,0.8469,0.8474,0.841,0.841,0.841,0,0,0.8077,0.8099,0.8133,0.8155,0.8187,0.8202,0.821,0.8243,0.8255,0.8296,0.8301,0.8328,0.8381,0.8403,0.8421,0.8465,0.8467,0.8474,0.8492,0.8515,0.852,0.8524,0.8539,0.8545,0.8478,0.8478,0.8478,0,0.8088,0.8136,0.815,0.8184,0.8204,0.8209,0.8244,0.8264,0.8304,0.8318,0.8311,0.8377,0.8398,0.8447,0.8458,0.8472,0.8481,0.8471,0.8518,0.8522,0.8526,0.8541,0.8547,0.8479,0.8479,0.8479,0.8479,0,0.8148,0.8181,0.8204,0.8243,0.8265,0.8299,0.8318,0.8339,0.8345,0.836,0.8401,0.8427,0.8462,0.8474,0.848,0.8523,0.8519,0.8515,0.8503,0.8532,0.8546,0.8552,0.848,0.848,0.8479,0.8479,0,0,0.819,0.8235,0.8244,0.8261,0.8296,0.8322,0.8355,0.8389,0.8406,0.8434,0.8461,0.8506,0.8502,0.8522,0.8531,0.8551,0.8584,0.8545,0.8546,0.8551,0.8632,0.8634,0.8641,0.8585,0.8586,0.8587,0.8629,0,0.8233,0.8293,0.8306,0.8357,0.8387,0.8392,0.8421,0.8445,0.8459,0.8486,0.8502,0.8533,0.8526,0.8538,0.8558,0.8576,0.86,0.8573,0.8611,0.8612,0.8603,0.8648,0.8652,0.869,0.8635,0.8636,0.8636,0,0.8291,0.8319,0.8373,0.8403,0.8417,0.8442,0.8474,0.85,0.8527,0.8536,0.8557,0.8563,0.8597,0.8583,0.8629,0.861,0.8625,0.8636,0.8638,0.8643,0.8626,0.8654,0.8703,0.8709,0.8645,0.8644,0.8644,0,0.8316,0.8367,0.8406,0.8421,0.8457,0.8475,0.8491,0.8517,0.8536,0.8563,0.8576,0.8606,0.8623,0.8646,0.866,0.8648,0.8705,0.8692,0.8713,0.8712,0.8725,0.8724,0.8777,0.8735,0.8735,0.8735,0.8734,0,0.8362,0.8395,0.8418,0.8442,0.8479,0.8493,0.8528,0.8544,0.8566,0.8593,0.8599,0.8623,0.864,0.8666,0.8677,0.8713,0.8721,0.8728,0.8731,0.8728,0.8727,0.8739,0.8737,0.8736,0.8736,0.8735,0.8735,0,0.8397,0.8414,0.8457,0.8487,0.8495,0.8521,0.8546,0.8569,0.8583,0.8616,0.8625,0.8646,0.8677,0.8693,0.8732,0.8739,0.878,0.8781,0.8771,0.8772,0.8792,0.879,0.8855,0.8864,0.8815,0.8816,0.8816,0,0.8426,0.8451,0.8484,0.8502,0.8518,0.8548,0.8567,0.8581,0.8601,0.8632,0.8651,0.8683,0.8709,0.8758,0.8777,0.8806,0.8808,0.8829,0.8813,0.8809,0.8808,0.8807,0.8809,0.8832,0.8832,0.8833,0.8833,0,0.8475,0.8482,0.851,0.854,0.8563,0.8588,0.8612,0.8626,0.8644,0.8665,0.8697,0.8718,0.8757,0.8788,0.8818,0.8834,0.8836,0.8838,0.8844,0.8842,0.8835,0.8838,0.8779,0.8836,0.8836,0.8836,0.8836,0.8835,0.8508,0.853,0.8556,0.8587,0.8606,0.8628,0.8651,0.8667,0.8694,0.8728,0.8734,0.8767,0.8792,0.8833,0.8849,0.8875,0.8871,0.888,0.8883,0.8885,0.8886,0.883,0.8881,0.8881,0.8881,0.8881,0.8881,0,0.8557,0.8574,0.8601,0.8635,0.8658,0.8658,0.8684,0.8704,0.8734,0.8757,0.8782,0.8818,0.8847,0.8868,0.8898,0.8914,0.8916,0.8922,0.8921,0.8924,0.8888,0.888,0.892,0.892,0.892,0.892,0.892,0.892,0.8585,0.8623,0.8632,0.8679,0.8695,0.8729,0.8743,0.8763,0.8782,0.8822,0.8846,0.8859,0.8881,0.8912,0.8938,0.8943,0.8954,0.896,0.8965,0.8931,0.8927,0.8923,0.8915,0.8962,0.8962,0.8999,0.8999,0.8999]},{"header":{"parameterUnit":"m.s-1","parameterCategory":1,"la1":30.2991,"la2":30.254,"lo1":-89.0895,"lo2":-89.0444,"dy":0.0017,"dx":0.0017,"nx":28,"ny":28,"refTime":"2024-04-19T09:00:00:Z","depth":0,"parameterNumber":3,"parameterNumberName":"V-component_of_WINDS"},"data":[0,0,0,0,0,0,0,0,0,0,0,0,0,0,0,0,0,0,0,0,0,0,0,0,0,0,0,0,0,0,0,0,0,0,0,0,0,0,0,0,0,0,0,0,0,0,0,0,0,0,0,0,0,0,0,0,0,0,3.1833,3.1833,0,3.1828,3.1828,3.1828,3.1779,3.1778,3.1776,3.1775,3.1771,3.1772,3.1773,0,0,0,0,0,0,0,0,0,0,0,0,0,3.1798,3.1799,3.1833,3.1833,3.1833,3.1828,3.1828,3.1828,3.1779,3.1777,3.1776,3.1775,3.177,3.1772,3.1773,0,0,0,0,0,0,0,0,0,0,0,0,0,3.1806,3.18,3.1833,3.1808,3.1805,3.1828,3.1828,3.1828,3.1779,3.1777,3.1776,3.1774,3.177,3.1771,3.1773,3.182,0,0,3.1778,3.1778,0,0,0,0,0,0,0,0,3.1805,3.1807,3.1811,3.1809,3.1807,3.1802,3.1814,3.1825,3.178,3.1789,3.1775,3.1773,3.1783,3.1783,3.1786,3.182,3.182,3.1778,3.1779,3.178,3.178,0,0,0,0,0,0,0,3.1805,3.1807,3.1831,3.1812,3.1809,3.1796,3.1795,3.1816,3.1796,3.1788,3.1785,3.1785,3.1781,3.1785,3.1786,3.1819,3.1778,3.1779,3.178,3.1781,3.189,3.1892,0,0,0,0,0,0,3.1808,3.1807,3.1831,3.1831,3.1801,3.1799,3.1797,3.1806,3.1796,3.1793,3.1786,3.1783,3.1783,3.1784,3.1786,3.1839,3.1779,3.1781,3.1782,3.1888,3.1891,3.1893,0,0,0,0,0,0,3.1807,3.181,3.1831,3.1818,3.182,3.1801,3.1811,3.1807,3.181,3.1795,3.1791,3.1794,3.1782,3.1783,3.1812,3.1839,3.1782,3.1783,3.1886,3.1889,3.1892,3.1948,0,0,0,0,0,0,3.1806,3.1811,3.1828,3.1819,3.182,3.1858,3.1812,3.1808,3.1813,3.1808,3.1801,3.1798,3.178,3.181,3.1813,3.184,3.1784,3.1884,3.1887,3.1891,3.1944,3.1952,3.196,0,0,0,0,0,3.1805,3.1845,3.183,3.1833,3.1842,3.186,3.1861,3.184,3.1816,3.1833,3.1823,3.1798,3.1835,3.1813,3.1816,3.1844,3.1882,3.1886,3.1891,3.194,3.1951,3.196,0,0,0,0,0,0,3.1858,3.1843,3.1826,3.1863,3.1863,3.1851,3.1873,3.1852,3.1859,3.1854,3.1827,3.1826,3.1858,3.1854,3.1829,3.1888,3.1854,3.1859,3.189,3.19,3.1908,3.1909,3.1786,0,0,0,0,0,3.1874,3.1889,3.1875,3.1909,3.191,3.1892,3.1898,3.1882,3.1881,3.1881,3.1872,3.1872,3.1884,3.1892,3.1901,3.1943,3.194,3.1963,3.1971,3.1978,3.1983,3.2004,3.2014,3.1908,3.1908,3.1907,0,0,3.1907,3.1901,3.1912,3.192,3.1918,3.1934,3.1892,3.1911,3.1922,3.1883,3.1909,3.1904,3.1901,3.1936,3.1951,3.1934,3.2012,3.1984,3.199,3.1991,3.201,3.202,3.2029,3.1911,3.191,3.191,0,0,3.1976,3.1973,3.2,3.1999,3.1996,3.1984,3.199,3.1982,3.1976,3.2002,3.1973,3.1986,3.2007,3.2006,3.2009,3.2076,3.2054,3.208,3.2123,3.2144,3.2152,3.216,3.2183,3.2192,3.2085,3.2085,3.2085,0,3.2017,3.2041,3.2017,3.2038,3.2042,3.2007,3.2035,3.2035,3.2036,3.2039,3.2019,3.2044,3.204,3.2074,3.209,3.2094,3.21,3.2081,3.2153,3.216,3.2167,3.2189,3.2198,3.2089,3.2088,3.2088,3.2088,0,3.2091,3.2108,3.2131,3.2132,3.2138,3.2163,3.2143,3.2152,3.2136,3.2125,3.2151,3.2146,3.2153,3.216,3.2144,3.2192,3.2181,3.2158,3.2122,3.218,3.2201,3.2209,3.2093,3.2092,3.2091,3.209,0,0,3.2193,3.2181,3.219,3.219,3.2184,3.2196,3.2219,3.2226,3.2234,3.2236,3.2254,3.2272,3.225,3.2253,3.2236,3.2255,3.2308,3.2229,3.2228,3.2243,3.236,3.2377,3.2388,3.2293,3.2295,3.2296,3.236,0,3.2259,3.2297,3.2276,3.2316,3.2331,3.2298,3.2317,3.2316,3.2306,3.2317,3.2307,3.232,3.229,3.2292,3.2308,3.2298,3.2331,3.2293,3.2309,3.231,3.2311,3.2399,3.2417,3.2478,3.2368,3.2369,3.237,0,3.2341,3.2345,3.2387,3.2378,3.2383,3.2401,3.2406,3.2417,3.2414,3.2406,3.2409,3.2388,3.2409,3.2375,3.2404,3.2378,3.2384,3.238,3.2381,3.2382,3.2344,3.2401,3.2497,3.2506,3.2383,3.2382,3.2381,0,3.241,3.2427,3.2454,3.2455,3.2445,3.2458,3.2455,3.2451,3.2456,3.246,3.2463,3.247,3.2474,3.248,3.2461,3.2438,3.2492,3.2456,3.2486,3.2486,3.2499,3.2498,3.2597,3.2503,3.2503,3.2502,3.2502,0,3.2486,3.2513,3.2485,3.2502,3.2531,3.2507,3.2536,3.2529,3.2525,3.254,3.2511,3.2526,3.25,3.2512,3.2497,3.2523,3.2525,3.2519,3.2515,3.2521,3.2522,3.2525,3.252,3.2505,3.2504,3.2504,3.2503,0,3.2569,3.2551,3.2578,3.2567,3.2564,3.2586,3.2576,3.2591,3.2579,3.2598,3.2601,3.2583,3.2595,3.2577,3.2587,3.2578,3.2613,3.2603,3.2614,3.2611,3.2642,3.2639,3.2745,3.2757,3.2656,3.2657,3.2658,0,3.2618,3.2637,3.2628,3.2635,3.2633,3.2646,3.2651,3.2628,3.2635,3.2633,3.2648,3.2658,3.2664,3.2686,3.2674,3.2681,3.2671,3.2707,3.2672,3.2678,3.2671,3.267,3.2672,3.2714,3.2716,3.2717,3.2717,0,3.2707,3.2697,3.2706,3.2711,3.2718,3.2722,3.2723,3.2731,3.2707,3.2716,3.2728,3.2733,3.2743,3.2753,3.2758,3.2754,3.2732,3.2729,3.2736,3.2743,3.2749,3.2746,3.2634,3.2726,3.2725,3.2725,3.2724,3.2724,3.2774,3.279,3.2785,3.2795,3.2794,3.2796,3.2809,3.2799,3.2808,3.2815,3.28,3.2816,3.2812,3.2816,3.2815,3.2827,3.2811,3.2821,3.2824,3.2827,3.2832,3.2747,3.2827,3.2827,3.2827,3.2827,3.2826,0,3.2861,3.2856,3.2866,3.2869,3.2877,3.2855,3.2855,3.2863,3.2877,3.2876,3.2883,3.2896,3.2906,3.2894,3.2902,3.2913,3.2903,3.2916,3.2915,3.2914,3.2846,3.2838,3.2924,3.2924,3.2924,3.2924,3.2924,3.2924,3.2907,3.2933,3.2922,3.2946,3.2941,3.2956,3.2958,3.2959,3.2958,3.2974,3.2982,3.2974,3.2969,3.2976,3.2983,3.298,3.2984,3.3,3.2993,3.2929,3.2919,3.291,3.2903,3.3001,3.3001,3.3061,3.3061,3.3062]}]]